| time (UTC) | temp F | wind direction | speed MPH | gust MPH | rain 1hr in | rain 24hr in | rain mn in | humidity % | barometer mb |
| 20260905221503 | 78 | 74 | 0.0 | 1.0 | 0.00 | 0.00 | 0.00 | 30 | 1010.5 |
| 20260905220058 | 77 | 76 | 0.0 | 0.0 | 0.00 | 0.00 | 0.00 | 30 | 1010.4 |
| 20260905214556 | 77 | 34 | 0.0 | 1.0 | 0.00 | 0.00 | 0.00 | 31 | 1010.4 |
| 20260905213100 | 77 | 33 | 0.0 | 3.0 | 0.00 | 0.00 | 0.00 | 32 | 1010.3 |
| 20260905211546 | 77 | 33 | 0.0 | 2.0 | 0.00 | 0.00 | 0.00 | 33 | 1010.2 |
| 20260905210050 | 78 | 64 | 0.0 | 1.0 | 0.00 | 0.00 | 0.00 | 33 | 1010.0 |
| 20260905204543 | 77 | 40 | 0.0 | 2.0 | 0.00 | 0.00 | 0.00 | 33 | 1010.1 |
| 20260905203034 | 78 | 32 | 0.0 | 2.0 | 0.00 | 0.00 | 0.00 | 33 | 1010.0 |
| 20260905201527 | 79 | 56 | 0.0 | 2.0 | 0.00 | 0.00 | 0.00 | 33 | 1009.9 |
| 20260905200023 | 79 | 44 | 0.0 | 3.0 | 0.00 | 0.00 | 0.00 | 32 | 1010.0 |
| 20260905194518 | 79 | 69 | 0.0 | 5.0 | 0.00 | 0.00 | 0.00 | 32 | 1010.0 |
| 20260905193014 | 79 | 69 | 0.0 | 2.0 | 0.00 | 0.00 | 0.00 | 30 | 1010.0 |
| 20260905191509 | 79 | 356 | 0.0 | 1.0 | 0.00 | 0.00 | 0.00 | 30 | 1010.1 |
| 20260905190004 | 78 | 56 | 0.0 | 2.0 | 0.00 | 0.00 | 0.00 | 31 | 1010.1 |
| 20260905184601 | 79 | 286 | 0.0 | 3.0 | 0.00 | 0.00 | 0.00 | 30 | 1010.3 |
| 20260905183056 | 79 | 280 | 0.0 | 1.0 | 0.00 | 0.00 | 0.00 | 30 | 1010.4 |
| 20260905181606 | 80 | 360 | 0.0 | 4.0 | 0.00 | 0.00 | 0.00 | 29 | 1010.3 |
| 20260905180047 | 79 | 281 | 0.0 | 10.0 | 0.00 | 0.00 | 0.00 | 29 | 1010.5 |
| 20260905174543 | 79 | 92 | 0.0 | 5.0 | 0.00 | 0.00 | 0.00 | 28 | 1010.6 |
| 20260905173041 | 78 | 53 | 1.0 | 5.0 | 0.00 | 0.00 | 0.00 | 28 | 1010.6 |
| 20260905171538 | 79 | 18 | 1.0 | 5.0 | 0.00 | 0.00 | 0.00 | 27 | 1010.8 |
| 20260905170034 | 78 | 25 | 0.0 | 5.0 | 0.00 | 0.00 | 0.00 | 27 | 1011.1 |
| 20260905164529 | 77 | 316 | 0.0 | 5.0 | 0.00 | 0.00 | 0.00 | 25 | 1011.0 |
| 20260905163026 | 77 | 25 | 0.0 | 2.0 | 0.00 | 0.00 | 0.00 | 24 | 1011.0 |
| 20260905161520 | 76 | 72 | 0.0 | 6.0 | 0.00 | 0.00 | 0.00 | 23 | 1011.0 |
| 20260905160015 | 76 | 25 | 2.0 | 5.0 | 0.00 | 0.00 | 0.00 | 24 | 1011.0 |
| 20260905154512 | 77 | 90 | 1.0 | 5.0 | 0.00 | 0.00 | 0.00 | 24 | 1010.8 |
| 20260905153008 | 76 | 68 | 1.0 | 7.0 | 0.00 | 0.00 | 0.00 | 23 | 1010.9 |
| 20260905151504 | 76 | 46 | 3.0 | 6.0 | 0.00 | 0.00 | 0.00 | 22 | 1011.0 |
| 20260905150059 | 76 | 315 | 0.0 | 2.0 | 0.00 | 0.00 | 0.00 | 19 | 1011.0 |
| 20260905144555 | 76 | 359 | 1.0 | 5.0 | 0.00 | 0.00 | 0.00 | 18 | 1011.0 |
| 20260905143050 | 76 | 44 | 2.0 | 5.0 | 0.00 | 0.00 | 0.00 | 15 | 1010.9 |
| 20260905141546 | 75 | 13 | 2.0 | 7.0 | 0.00 | 0.00 | 0.00 | 17 | 1010.8 |
| 20260905140041 | 76 | 308 | 0.0 | 3.0 | 0.00 | 0.00 | 0.00 | 12 | 1010.8 |
| 20260905134539 | 75 | 37 | 0.0 | 5.0 | 0.00 | 0.00 | 0.00 | 9 | 1010.8 |
| 20260905133032 | 75 | 40 | 1.0 | 5.0 | 0.00 | 0.00 | 0.00 | 5 | 1010.7 |
| 20260905131529 | 74 | 70 | 0.0 | 3.0 | 0.00 | 0.00 | 0.00 | 1 | 1010.9 |
| 20260905130024 | 72 | 35 | 0.0 | 2.0 | 0.00 | 0.00 | 0.00 | 1 | 1010.9 |
| 20260905124523 | 70 | 73 | 0.0 | 3.0 | 0.00 | 0.00 | 0.00 | 1 | 1011.1 |
| 20260905123019 | 69 | 98 | 1.0 | 4.0 | 0.00 | 0.00 | 0.00 | 1 | 1011.4 |
| 20260905121510 | 68 | 111 | 0.0 | 3.0 | 0.00 | 0.00 | 0.00 | 1 | 1011.3 |
| 20260905120005 | 67 | 18 | 0.0 | 1.0 | 0.00 | 0.00 | 0.00 | 1 | 1011.2 |
| 20260905114501 | 66 | 36 | 0.0 | 1.0 | 0.00 | 0.00 | 0.00 | 1 | 1011.1 |
| 20260905113057 | 66 | 323 | 0.0 | 1.0 | 0.00 | 0.00 | 0.00 | 1 | 1011.0 |
| 20260905111604 | 66 | 267 | 0.0 | 1.0 | 0.00 | 0.00 | 0.00 | 1 | 1010.8 |
| 20260905110056 | 66 | 8 | 0.0 | 1.0 | 0.00 | 0.00 | 0.00 | 1 | 1010.5 |
| 20260905104555 | 66 | 8 | 0.0 | 0.0 | 0.00 | 0.00 | 0.00 | 1 | 1010.3 |
| 20260905103039 | 66 | 8 | 0.0 | 0.0 | 0.00 | 0.00 | 0.00 | 1 | 1010.3 |
| 20260905101536 | 66 | 8 | 0.0 | 0.0 | 0.00 | 0.00 | 0.00 | 1 | 1010.4 |
| 20260905100036 | 67 | 8 | 0.0 | 1.0 | 0.00 | 0.00 | 0.00 | 1 | 1010.3 |
| 20260905094526 | 67 | 38 | 0.0 | 0.0 | 0.00 | 0.00 | 0.00 | 1 | 1010.2 |
| 20260905093021 | 68 | 38 | 0.0 | 0.0 | 0.00 | 0.00 | 0.00 | 1 | 1010.2 |
| 20260905091517 | 69 | 38 | 0.0 | 0.0 | 0.00 | 0.00 | 0.00 | 1 | 1010.1 |
| 20260905090012 | 70 | 38 | 0.0 | 0.0 | 0.00 | 0.00 | 0.00 | 1 | 1010.1 |
| 20260905084507 | 70 | 38 | 0.0 | 1.0 | 0.00 | 0.00 | 0.00 | 2 | 1010.0 |
| 20260905083005 | 70 | 18 | 0.0 | 1.0 | 0.00 | 0.00 | 0.00 | 4 | 1010.0 |
| 20260905081559 | 70 | 7 | 0.0 | 1.0 | 0.00 | 0.00 | 0.00 | 6 | 1010.1 |
| 20260905074601 | 71 | 42 | 0.0 | 0.0 | 0.00 | 0.00 | 0.00 | 7 | 1009.9 |
| 20260905073046 | 71 | 42 | 0.0 | 1.0 | 0.00 | 0.00 | 0.00 | 7 | 1010.1 |
| 20260905071545 | 71 | 48 | 0.0 | 0.0 | 0.00 | 0.00 | 0.00 | 7 | 1010.2 |
| 20260905064533 | 71 | 34 | 0.0 | 1.0 | 0.00 | 0.00 | 0.00 | 8 | 1010.3 |
| 20260905063029 | 71 | 42 | 0.0 | 0.0 | 0.00 | 0.00 | 0.00 | 7 | 1010.3 |
| 20260905061524 | 71 | 42 | 0.0 | 1.0 | 0.00 | 0.00 | 0.00 | 5 | 1010.3 |
| 20260905060019 | 71 | 44 | 0.0 | 0.0 | 0.00 | 0.00 | 0.00 | 2 | 1010.4 |
| 20260905054532 | 72 | 44 | 0.0 | 0.0 | 0.00 | 0.00 | 0.00 | 2 | 1010.4 |
| 20260905053010 | 72 | 44 | 0.0 | 0.0 | 0.00 | 0.00 | 0.00 | 2 | 1010.7 |
| 20260905051506 | 72 | 44 | 0.0 | 0.0 | 0.00 | 0.00 | 0.00 | 2 | 1010.9 |
| 20260905050001 | 72 | 44 | 0.0 | 0.0 | 0.00 | 0.00 | 0.00 | 1 | 1011.0 |
| 20260905044558 | 72 | 44 | 0.0 | 0.0 | 0.00 | 0.00 | 0.00 | 2 | 1011.0 |
| 20260905043054 | 72 | 44 | 0.0 | 1.0 | 0.00 | 0.00 | 0.00 | 3 | 1011.0 |
| 20260905041555 | 73 | 34 | 0.0 | 1.0 | 0.00 | 0.00 | 0.00 | 2 | 1011.0 |
| 20260905040050 | 73 | 34 | 0.0 | 0.0 | 0.00 | 0.00 | 0.00 | 1 | 1011.1 |
| 20260905034542 | 72 | 34 | 0.0 | 0.0 | 0.00 | 0.00 | 0.00 | 1 | 1011.1 |
| 20260905033049 | 72 | 34 | 0.0 | 1.0 | 0.00 | 0.00 | 0.00 | 1 | 1011.1 |
| 20260905031539 | 72 | 34 | 0.0 | 0.0 | 0.00 | 0.00 | 0.00 | 1 | 1011.0 |
| 20260905030033 | 72 | 34 | 0.0 | 0.0 | 0.00 | 0.00 | 0.00 | 1 | 1011.0 |
| 20260905024526 | 71 | 34 | 0.0 | 0.0 | 0.00 | 0.00 | 0.00 | 1 | 1011.0 |
| 20260905023028 | 71 | 34 | 0.0 | 0.0 | 0.00 | 0.00 | 0.00 | 1 | 1011.0 |
| 20260905021516 | 72 | 34 | 0.0 | 0.0 | 0.00 | 0.00 | 0.00 | 1 | 1011.2 |
| 20260905020014 | 72 | 34 | 0.0 | 0.0 | 0.00 | 0.00 | 0.00 | 1 | 1011.3 |
| 20260905014507 | 71 | 34 | 0.0 | 0.0 | 0.00 | 0.00 | 0.00 | 1 | 1011.3 |
| 20260905013002 | 72 | 34 | 0.0 | 0.0 | 0.00 | 0.00 | 0.00 | 1 | 1011.1 |
| 20260905011606 | 72 | 41 | 0.0 | 0.0 | 0.00 | 0.00 | 0.00 | 1 | 1011.0 |
| 20260905010106 | 73 | 44 | 0.0 | 0.0 | 0.00 | 0.00 | 0.00 | 1 | 1011.2 |
| 20260905004551 | 73 | 44 | 0.0 | 0.0 | 0.00 | 0.00 | 0.00 | 1 | 1010.9 |
| 20260905003048 | 73 | 44 | 0.0 | 0.0 | 0.00 | 0.00 | 0.00 | 1 | 1011.0 |
| 20260905001543 | 74 | 44 | 0.0 | 1.0 | 0.00 | 0.00 | 0.00 | 1 | 1010.9 |
| 20260905000040 | 75 | 44 | 0.0 | 0.0 | 0.00 | 0.00 | 0.00 | 1 | 1010.7 |
| 20260904234542 | 76 | 44 | 0.0 | 0.0 | 0.00 | 0.00 | 0.00 | 1 | 1010.6 |
| 20260904233030 | 77 | 44 | 0.0 | 0.0 | 0.00 | 0.00 | 0.00 | 11 | 1010.5 |
| 20260904231528 | 78 | 44 | 0.0 | 0.0 | 0.00 | 0.00 | 0.00 | 21 | 1010.5 |
| 20260904230021 | 80 | 44 | 0.0 | 0.0 | 0.00 | 0.00 | 0.00 | 29 | 1010.5 |
| 20260904224516 | 83 | 44 | 0.0 | 0.0 | 0.00 | 0.00 | 0.00 | 33 | 1010.6 |
| 20260904223012 | 86 | 348 | 0.0 | 0.0 | 0.00 | 0.00 | 0.00 | 33 | 1010.7 |